Time,TemperatureF,DewpointF,PressureIn,WindDirection,WindDirectionDegrees,WindSpeedMPH,WindSpeedGustMPH,Humidity,HourlyPrecipIn,Conditions,Clouds,dailyrainin,SoftwareType,DateUTC
2016-08-25 00:13:00,71.8,69.0,30.01,WNW,293,0.0,0.0,92,0.00,,,0.00,weatherlink.com 1.10,2016-08-25 05:13:00,
2016-08-25 00:28:00,71.5,69.0,30.01,WNW,293,0.0,0.0,92,0.00,,,0.00,weatherlink.com 1.10,2016-08-25 05:28:00,
2016-08-25 00:43:00,71.3,69.0,30.01,ESE,119,0.0,2.0,92,0.00,,,0.00,weatherlink.com 1.10,2016-08-25 05:43:00,
2016-08-25 00:58:00,71.1,69.0,30.02,ESE,119,0.0,1.0,92,0.00,,,0.00,weatherlink.com 1.10,2016-08-25 05:58:00,
2016-08-25 01:13:00,70.8,68.0,30.03,ESE,119,0.0,0.0,92,0.00,,,0.00,weatherlink.com 1.10,2016-08-25 06:13:00,
2016-08-25 01:28:00,70.6,68.0,30.03,ESE,118,0.0,0.0,92,0.00,,,0.00,weatherlink.com 1.10,2016-08-25 06:28:00,
2016-08-25 01:43:00,70.5,68.0,30.04,ESE,118,0.0,0.0,93,0.00,,,0.00,weatherlink.com 1.10,2016-08-25 06:43:00,
2016-08-25 01:58:00,70.4,69.0,30.03,ESE,118,0.0,1.0,94,0.00,,,0.00,weatherlink.com 1.10,2016-08-25 06:58:00,
2016-08-25 02:13:00,70.1,68.0,30.03,ESE,119,0.0,0.0,94,0.00,,,0.00,weatherlink.com 1.10,2016-08-25 07:13:00,
2016-08-25 02:28:00,69.8,68.0,30.03,ESE,119,0.0,0.0,94,0.00,,,0.00,weatherlink.com 1.10,2016-08-25 07:28:00,
2016-08-25 02:43:00,69.5,68.0,30.03,ESE,119,0.0,0.0,94,0.00,,,0.00,weatherlink.com 1.10,2016-08-25 07:43:00,
2016-08-25 02:58:00,69.1,67.0,30.04,ESE,123,0.0,0.0,94,0.00,,,0.00,weatherlink.com 1.10,2016-08-25 07:58:00,
2016-08-25 03:28:00,68.4,67.0,30.04,SE,132,0.0,0.0,94,0.00,,,0.00,weatherlink.com 1.10,2016-08-25 08:28:00,
2016-08-25 03:43:00,68.0,66.0,30.04,SE,129,0.0,1.0,94,0.00,,,0.00,weatherlink.com 1.10,2016-08-25 08:43:00,
2016-08-25 03:58:00,67.6,66.0,30.04,ESE,122,0.0,1.0,94,0.00,,,0.00,weatherlink.com 1.10,2016-08-25 08:58:00,
2016-08-25 04:13:00,67.3,66.0,30.05,ESE,121,0.0,0.0,94,0.00,,,0.00,weatherlink.com 1.10,2016-08-25 09:13:00,
2016-08-25 04:28:00,67.0,65.0,30.05,ESE,121,0.0,1.0,93,0.00,,,0.00,weatherlink.com 1.10,2016-08-25 09:28:00,
2016-08-25 04:43:00,66.6,65.0,30.05,ESE,121,0.0,1.0,93,0.00,,,0.00,weatherlink.com 1.10,2016-08-25 09:43:00,
2016-08-25 04:58:00,66.4,64.0,30.05,ESE,122,0.0,1.0,93,0.00,,,0.00,weatherlink.com 1.10,2016-08-25 09:58:00,
2016-08-25 05:13:00,66.2,64.0,30.05,ESE,122,0.0,1.0,93,0.00,,,0.00,weatherlink.com 1.10,2016-08-25 10:13:00,
2016-08-25 05:28:00,66.0,64.0,30.05,ESE,121,0.0,1.0,94,0.00,,,0.00,weatherlink.com 1.10,2016-08-25 10:28:00,
2016-08-25 05:43:00,65.8,64.0,30.07,ESE,121,0.0,1.0,94,0.00,,,0.00,weatherlink.com 1.10,2016-08-25 10:43:00,
2016-08-25 05:58:00,65.4,64.0,30.07,ESE,121,0.0,1.0,94,0.00,,,0.00,weatherlink.com 1.10,2016-08-25 10:58:00,
2016-08-25 06:13:00,65.0,63.0,30.07,ESE,121,0.0,1.0,94,0.00,,,0.00,weatherlink.com 1.10,2016-08-25 11:13:00,
2016-08-25 06:44:00,64.5,63.0,30.08,ESE,121,0.0,0.0,94,0.00,,,0.00,weatherlink.com 1.10,2016-08-25 11:44:00,
2016-08-25 06:59:00,64.3,63.0,30.09,ESE,121,0.0,0.0,95,0.00,,,0.00,weatherlink.com 1.10,2016-08-25 11:59:00,
2016-08-25 07:14:00,64.3,63.0,30.08,ESE,121,0.0,0.0,95,0.00,,,0.00,weatherlink.com 1.10,2016-08-25 12:14:00,
2016-08-25 07:29:00,64.8,64.0,30.08,ESE,121,0.0,1.0,96,0.00,,,0.00,weatherlink.com 1.10,2016-08-25 12:29:00,
2016-08-25 07:44:00,65.5,64.0,30.09,ESE,121,0.0,1.0,96,0.00,,,0.00,weatherlink.com 1.10,2016-08-25 12:44:00,
2016-08-25 07:59:00,66.3,65.0,30.08,ESE,120,0.0,0.0,94,0.00,,,0.00,weatherlink.com 1.10,2016-08-25 12:59:00,
2016-08-25 08:14:00,66.9,64.0,30.09,ESE,121,0.0,0.0,91,0.00,,,0.00,weatherlink.com 1.10,2016-08-25 13:14:00,
2016-08-25 08:29:00,67.6,65.0,30.09,ESE,120,0.0,1.0,90,0.00,,,0.00,weatherlink.com 1.10,2016-08-25 13:29:00,
2016-08-25 08:44:00,68.9,65.0,30.09,ESE,120,1.0,1.0,88,0.00,,,0.00,weatherlink.com 1.10,2016-08-25 13:44:00,
2016-08-25 08:59:00,70.3,65.0,30.09,ESE,120,0.0,1.0,83,0.00,,,0.00,weatherlink.com 1.10,2016-08-25 13:59:00,
2016-08-25 09:14:00,71.6,66.0,30.09,NE,53,1.0,2.0,81,0.00,,,0.00,weatherlink.com 1.10,2016-08-25 14:14:00,
2016-08-25 09:44:00,73.0,66.0,30.09,ESE,119,0.0,1.0,78,0.00,,,0.00,weatherlink.com 1.10,2016-08-25 14:44:00,
2016-08-25 09:59:00,73.8,66.0,30.10,ESE,119,1.0,2.0,76,0.00,,,0.00,weatherlink.com 1.10,2016-08-25 14:59:00,
2016-08-25 10:14:00,74.6,67.0,30.11,East,96,1.0,2.0,76,0.00,,,0.00,weatherlink.com 1.10,2016-08-25 15:14:00,
2016-08-25 10:29:00,75.1,66.0,30.11,East,96,0.0,2.0,73,0.00,,,0.00,weatherlink.com 1.10,2016-08-25 15:29:00,
2016-08-25 10:44:00,76.3,66.0,30.11,NW,314,3.0,3.0,70,0.00,,,0.00,weatherlink.com 1.10,2016-08-25 15:44:00,